Logo
Every Saturday at 20:00 UTC
IRC
Discord

Next jam:

Jams (113 total!)
Click on a column header to sort.
Number Theme Date Entries
113 Purposely Bad 24 Jun 2017 at 20:00 20
112 The Floor Is Lava 17 Jun 2017 at 20:00 24
111 Lost 10 Jun 2017 at 20:00 17
110 Switch 03 Jun 2017 at 20:00 24
109 Square 27 May 2017 at 20:00 21
108 Bees 20 May 2017 at 20:00 16
107 rockets 13 May 2017 at 20:00 26
106 Shop 06 May 2017 at 20:00 19
105 Gold 29 Apr 2017 at 20:00 29
104 One Dimension 22 Apr 2017 at 20:00 11
103 10 seconds 15 Apr 2017 at 20:00 28
102 A game based off the object to your left 08 Apr 2017 at 20:00 25
101 One Button 01 Apr 2017 at 20:00 29
100 I made this 25 Mar 2017 at 20:00 39
99 Wind 18 Mar 2017 at 20:00 26
98 Egg 11 Mar 2017 at 20:00 22
97 Trains! 04 Mar 2017 at 20:00 16
96 Mine 25 Feb 2017 at 20:00 16
95 😺 (Cat emoji) 18 Feb 2017 at 20:00 25
94 Simulator 11 Feb 2017 at 20:00 21
93 Complete and utter nonsense 04 Feb 2017 at 20:00 16
92 Shapes 28 Jan 2017 at 20:00 10
91 "Waves" or "Big vs Small" 21 Jan 2017 at 20:00 13
90 Abridged versions of popular games 14 Jan 2017 at 20:00 11
89 Tunnels 07 Jan 2017 at 20:00 17
88 Autumn Colours 31 Dec 2016 at 20:00 5
87 Flip 24 Dec 2016 at 20:00 7
86 Behind the Scenes 17 Dec 2016 at 20:00 10
85 Kamikaze 10 Dec 2016 at 20:00 6
84 Upside Down 03 Dec 2016 at 20:00 14
83 Protection 26 Nov 2016 at 20:00 17
82 Winter 19 Nov 2016 at 20:00 27
81 Survival 12 Nov 2016 at 20:00 22
80 Text Based / Text For Graphics 05 Nov 2016 at 20:00 22
79 Pumpkins 29 Oct 2016 at 20:00 23
78 Lime 22 Oct 2016 at 20:00 26
77 Break it! 15 Oct 2016 at 20:00 18
76 Fall'n'Avoid 08 Oct 2016 at 20:00 25
75 Construction 01 Oct 2016 at 20:00 19
74 Two Button Controls 24 Sep 2016 at 20:00 22
73 Isolation 17 Sep 2016 at 20:00 29
72 Creation 10 Sep 2016 at 20:00 27
71 Reverse 03 Sep 2016 at 20:00 17
70 Zero Gravity 27 Aug 2016 at 20:00 3
69 One button 20 Aug 2016 at 20:00 25
68 Mirror 13 Aug 2016 at 20:00 19
67 Mouse only 06 Aug 2016 at 20:00 19
66 Don't Touch Me! 30 Jul 2016 at 20:00 25
65 Only 2 colors 23 Jul 2016 at 20:00 18
64 The Cube 16 Jul 2016 at 20:00 21
63 Jump and Run 09 Jul 2016 at 20:00 21
62 Jetpack 02 Jul 2016 at 20:00 28
61 Do it Quickly 25 Jun 2016 at 20:00 21
60 Castle 18 Jun 2016 at 20:00 23
59 Colours 11 Jun 2016 at 20:00 19
58 Stealth 04 Jun 2016 at 20:00 17
57 Space 28 May 2016 at 20:00 14
56 60 Seconds 21 May 2016 at 20:00 15
55 Everything Is Dangerous 14 May 2016 at 20:00 18
54 Yellow Unicorn 07 May 2016 at 21:00 11
53 When Pigs Fly 30 Apr 2016 at 20:00 22
52 Bridge 23 Apr 2016 at 20:00 18
51 PackYour Bag 16 Apr 2016 at 20:00 4
50 Toaster Madness 09 Apr 2016 at 22:00 17
49 sticky 02 Apr 2016 at 22:00 14
48 Egg 26 Mar 2016 at 21:00 15
47 Help 19 Mar 2016 at 21:00 18
46 Puzzle 12 Mar 2016 at 21:00 15
45 Cake! 05 Mar 2016 at 21:00 14
44 Monster 27 Feb 2016 at 21:00 15
43 Gravity 20 Feb 2016 at 21:00 15
42 Trains 13 Feb 2016 at 20:00 12
41 Move or Die 06 Feb 2016 at 21:00 14
40 Waves 30 Jan 2016 at 21:00 11
39 Day And Night 23 Jan 2016 at 21:00 13
38 A game based off of another IRC’ers name 16 Jan 2016 at 21:00 16
37 Twins 09 Jan 2016 at 20:00 11
36 Colourful 02 Jan 2016 at 21:00 8
35 Snow 26 Dec 2015 at 21:00 9
34 scale 19 Dec 2015 at 21:00 12
33 Escape 05 Dec 2015 at 21:00 17
32 Falling 28 Nov 2015 at 21:00 15
31 Waiting Room 21 Nov 2015 at 21:00 11
30 Solidarity 14 Nov 2015 at 20:00 12
29 Bitslap's Birthday Jam 07 Nov 2015 at 18:00 12
28 horror 31 Oct 2015 at 22:00 11
27 Abandoned 24 Oct 2015 at 20:00 12
26 Adorable 17 Oct 2015 at 22:00 15
25 Conformist 10 Oct 2015 at 20:00 17
24 Chain Reaction 03 Oct 2015 at 22:00 16
23 Light 26 Sep 2015 at 22:00 8
22 Speed 19 Sep 2015 at 22:00 17
21 Dynamite 12 Sep 2015 at 22:00 19
20 Press The Button! 05 Sep 2015 at 22:00 26
19 Rock Simulator 29 Aug 2015 at 22:00 21
18 Space 15 Aug 2015 at 22:00 16
17 Robot Wars 08 Aug 2015 at 22:00 10
16 Bricks 01 Aug 2015 at 22:00 13
15 Higher And Higher 25 Jul 2015 at 22:00 14
14 Kittens 18 Jul 2015 at 22:00 11
13 Money 11 Jul 2015 at 22:00 19
12 Chess 04 Jul 2015 at 22:00 17
11 Rainbows 27 Jun 2015 at 22:00 21
10 One Hour Long Lame 20 Jun 2015 at 22:00 18
9 Teamwork 13 Jun 2015 at 22:00 15
8 Red Vs Blue 06 Jun 2015 at 22:00 12
7 Whats Cooking Good Looking? 30 May 2015 at 22:00 18
6 Grids 25 May 2015 at 22:00 20
5 Flight 15 May 2015 at 22:00 19
4 Survive 09 May 2015 at 22:00 12
3 You Are The Power Source 02 May 2015 at 22:00 14
2 Deeper and Deeper 29 Apr 2015 at 22:00 6
1 Telekinetic Bomberman Rush 14 Feb 2015 at 22:00 5
One Hour Game Jam is open-source, Get One Hour Game Jam software on GitHub.
Content posted to this website might be subject to Copyright, consult with content authors before use.
Established 2015